Year,Month,Day,Hour,Minute,Value (Times are PST for temperature in C)
2017,07,23,11,39,17.50
2017,07,23,11,40,17.50
2017,07,23,11,41,17.60
2017,07,23,11,42,17.70
2017,07,23,11,43,17.80
2017,07,23,11,44,17.80
2017,07,23,11,45,17.80
2017,07,23,11,46,17.80
2017,07,23,11,47,17.80
2017,07,23,11,48,17.80
2017,07,23,11,49,17.70
2017,07,23,11,50,17.60
2017,07,23,11,51,17.50
2017,07,23,11,52,17.30
2017,07,23,11,53,17.20
2017,07,23,11,54,17.10
2017,07,23,11,55,17.00
2017,07,23,11,56,16.90
2017,07,23,11,57,16.90
2017,07,23,11,58,16.80
2017,07,23,11,59,16.80
2017,07,23,12,00,16.70
2017,07,23,12,01,16.70
2017,07,23,12,02,16.80
2017,07,23,12,03,16.80
2017,07,23,12,04,16.80
2017,07,23,12,05,16.80
2017,07,23,12,06,16.90
2017,07,23,12,07,17.00
2017,07,23,12,08,17.10
2017,07,23,12,09,17.10
2017,07,23,12,10,17.10
2017,07,23,12,11,17.10
2017,07,23,12,12,17.20
2017,07,23,12,13,17.10
2017,07,23,12,14,17.10
2017,07,23,12,15,17.10
2017,07,23,12,16,17.10
2017,07,23,12,17,17.10
2017,07,23,12,18,17.10
2017,07,23,12,19,17.10
2017,07,23,12,20,17.10
2017,07,23,12,21,17.10
2017,07,23,12,22,17.10
2017,07,23,12,23,17.10
2017,07,23,12,24,17.10
2017,07,23,12,25,17.00
2017,07,23,12,26,17.10
2017,07,23,12,27,17.10
2017,07,23,12,28,17.10
2017,07,23,12,29,17.10
2017,07,23,12,30,17.20
2017,07,23,12,31,17.20
2017,07,23,12,32,17.20
2017,07,23,12,33,17.30
2017,07,23,12,34,17.40
2017,07,23,12,35,17.50
2017,07,23,12,36,17.60
2017,07,23,12,37,17.60
2017,07,23,12,38,17.70
2017,07,23,12,39,17.70
2017,07,23,12,40,17.70
2017,07,23,12,41,17.70
2017,07,23,12,42,17.80
2017,07,23,12,43,17.80
2017,07,23,12,44,17.90
2017,07,23,12,45,18.00
2017,07,23,12,46,18.00
2017,07,23,12,47,18.10
2017,07,23,12,48,18.10
2017,07,23,12,49,18.10
2017,07,23,12,50,18.00
2017,07,23,12,51,18.00
2017,07,23,12,52,17.90
2017,07,23,12,53,17.90
2017,07,23,12,54,17.90
2017,07,23,12,55,17.90
2017,07,23,12,56,17.90
2017,07,23,12,57,17.90
2017,07,23,12,58,17.90
2017,07,23,12,59,17.80
2017,07,23,13,00,17.80
2017,07,23,13,01,17.80
2017,07,23,13,02,17.80
2017,07,23,13,03,17.80
2017,07,23,13,04,17.80
2017,07,23,13,05,17.70
2017,07,23,13,06,17.70
2017,07,23,13,07,17.80
2017,07,23,13,08,17.70
2017,07,23,13,09,17.70
2017,07,23,13,10,17.50
2017,07,23,13,11,17.40
2017,07,23,13,12,17.40
2017,07,23,13,13,17.40
2017,07,23,13,14,17.40
2017,07,23,13,15,17.40
2017,07,23,13,16,17.40
2017,07,23,13,17,17.50
2017,07,23,13,18,17.50
2017,07,23,13,19,17.50
2017,07,23,13,20,17.50
2017,07,23,13,21,17.50
2017,07,23,13,22,17.40
2017,07,23,13,23,17.40
2017,07,23,13,24,17.40
2017,07,23,13,25,17.40
2017,07,23,13,26,17.40
2017,07,23,13,27,17.40
2017,07,23,13,28,17.50
2017,07,23,13,29,17.60
2017,07,23,13,30,17.70
2017,07,23,13,31,17.80
2017,07,23,13,32,17.80
2017,07,23,13,33,17.80
2017,07,23,13,34,17.90
2017,07,23,13,35,18.00
2017,07,23,13,36,18.10
2017,07,23,13,37,18.20
2017,07,23,13,38,18.20
2017,07,23,13,39,18.20
2017,07,23,13,40,18.10
2017,07,23,13,41,18.10
2017,07,23,13,42,18.00
2017,07,23,13,43,18.00
2017,07,23,13,44,18.10
2017,07,23,13,45,18.10
2017,07,23,13,46,18.20
2017,07,23,13,47,18.20
2017,07,23,13,48,18.20
2017,07,23,13,49,18.30
2017,07,23,13,50,18.30
2017,07,23,13,51,18.40
2017,07,23,13,52,18.40
2017,07,23,13,53,18.40
2017,07,23,13,54,18.40
2017,07,23,13,55,18.50
2017,07,23,13,56,18.50
2017,07,23,13,57,18.60
2017,07,23,13,58,18.60
2017,07,23,13,59,18.60
2017,07,23,14,00,18.60
2017,07,23,14,01,18.70
2017,07,23,14,02,18.70
2017,07,23,14,03,18.70
2017,07,23,14,04,18.80
2017,07,23,14,05,18.90
2017,07,23,14,06,19.00
2017,07,23,14,07,19.20
2017,07,23,14,08,19.30
2017,07,23,14,09,19.40
2017,07,23,14,10,19.60
2017,07,23,14,11,19.60
2017,07,23,14,12,19.60
2017,07,23,14,13,19.60
2017,07,23,14,14,19.60
2017,07,23,14,15,19.60
2017,07,23,14,16,19.60
2017,07,23,14,17,19.60
2017,07,23,14,18,19.60
2017,07,23,14,19,19.60
2017,07,23,14,20,19.50
2017,07,23,14,21,19.40
2017,07,23,14,22,19.40
2017,07,23,14,23,19.40
2017,07,23,14,24,19.40
2017,07,23,14,25,19.40
2017,07,23,14,26,19.40
2017,07,23,14,27,19.30
2017,07,23,14,28,19.30
2017,07,23,14,29,19.40
2017,07,23,14,30,19.40
2017,07,23,14,31,19.50
2017,07,23,14,32,19.60
2017,07,23,14,33,19.50
2017,07,23,14,34,19.50
2017,07,23,14,35,19.40
2017,07,23,14,36,19.40
2017,07,23,14,37,19.40
2017,07,23,14,38,19.40
2017,07,23,14,39,19.20
2017,07,23,14,40,19.10
2017,07,23,14,41,18.90
2017,07,23,14,42,18.80
2017,07,23,14,43,18.60
2017,07,23,14,44,18.50
2017,07,23,14,45,18.30
2017,07,23,14,46,18.20
2017,07,23,14,47,18.20
2017,07,23,14,48,18.20
2017,07,23,14,49,18.30
2017,07,23,14,50,18.30
2017,07,23,14,51,18.40
2017,07,23,14,52,18.50
2017,07,23,14,53,18.50
2017,07,23,14,54,18.60
2017,07,23,14,55,18.60
2017,07,23,14,56,18.60
2017,07,23,14,57,18.60
2017,07,23,14,58,18.60
2017,07,23,14,59,18.50
2017,07,23,15,00,18.50
2017,07,23,15,01,18.40
2017,07,23,15,02,18.40
2017,07,23,15,03,18.40
2017,07,23,15,04,18.40
2017,07,23,15,05,18.50
2017,07,23,15,06,18.60
2017,07,23,15,07,18.70
2017,07,23,15,08,18.70
2017,07,23,15,09,18.70
2017,07,23,15,10,18.70
2017,07,23,15,11,18.70
2017,07,23,15,12,18.70
2017,07,23,15,13,18.70
2017,07,23,15,14,18.60
2017,07,23,15,15,18.60
2017,07,23,15,16,18.50
2017,07,23,15,17,18.40
2017,07,23,15,18,18.40
2017,07,23,15,19,18.30
2017,07,23,15,20,18.30
2017,07,23,15,21,18.30
2017,07,23,15,22,18.50
2017,07,23,15,23,18.60
2017,07,23,15,24,18.70
2017,07,23,15,25,18.80
2017,07,23,15,26,18.80
2017,07,23,15,27,18.90
2017,07,23,15,28,18.90
2017,07,23,15,29,18.90
2017,07,23,15,30,18.90
2017,07,23,15,31,18.90
2017,07,23,15,32,18.90
2017,07,23,15,33,18.90
2017,07,23,15,34,19.00
2017,07,23,15,35,19.00
2017,07,23,15,36,19.10
2017,07,23,15,37,19.20
2017,07,23,15,38,19.20
2017,07,23,15,39,19.20
2017,07,23,15,40,19.30
2017,07,23,15,41,19.30
2017,07,23,15,42,19.30
2017,07,23,15,43,19.30
2017,07,23,15,44,19.30
2017,07,23,15,45,19.30
2017,07,23,15,46,19.30
2017,07,23,15,47,19.30
2017,07,23,15,48,19.30
2017,07,23,15,49,19.30
2017,07,23,15,50,19.30
2017,07,23,15,51,19.30
2017,07,23,15,52,19.30
2017,07,23,15,53,19.20
2017,07,23,15,54,19.20
2017,07,23,15,55,19.20
2017,07,23,15,56,19.20
2017,07,23,15,57,19.20
2017,07,23,15,58,19.10
2017,07,23,15,59,19.10
2017,07,23,16,00,19.10
2017,07,23,16,01,19.10
2017,07,23,16,02,19.20
2017,07,23,16,03,19.30
2017,07,23,16,04,19.30
2017,07,23,16,05,19.30
2017,07,23,16,06,19.30
2017,07,23,16,07,19.40
2017,07,23,16,08,19.40
2017,07,23,16,09,19.50
2017,07,23,16,10,19.60
2017,07,23,16,11,19.70
2017,07,23,16,12,19.80
2017,07,23,16,13,19.80
2017,07,23,16,14,19.80
2017,07,23,16,15,19.80
2017,07,23,16,16,19.80
2017,07,23,16,17,19.90
2017,07,23,16,18,19.90
2017,07,23,16,19,19.90
2017,07,23,16,20,19.90
2017,07,23,16,21,19.80
2017,07,23,16,22,19.80
2017,07,23,16,23,19.80
2017,07,23,16,24,19.80
2017,07,23,16,25,19.80
2017,07,23,16,26,19.90
2017,07,23,16,27,19.90
2017,07,23,16,28,19.90
2017,07,23,16,29,19.90
2017,07,23,16,30,19.90
2017,07,23,16,31,19.90
2017,07,23,16,32,19.90
2017,07,23,16,33,19.90
2017,07,23,16,34,19.90
2017,07,23,16,35,20.00
2017,07,23,16,36,20.00
2017,07,23,16,37,20.10
2017,07,23,16,38,20.10
2017,07,23,16,39,20.10
2017,07,23,16,40,20.10
2017,07,23,16,41,20.00
2017,07,23,16,42,20.00
2017,07,23,16,43,20.00
2017,07,23,16,44,20.00
2017,07,23,16,45,20.00
2017,07,23,16,46,20.00
2017,07,23,16,47,20.00
2017,07,23,16,48,20.00
2017,07,23,16,49,19.90
2017,07,23,16,50,19.90
2017,07,23,16,51,19.90
2017,07,23,16,52,19.90
2017,07,23,16,53,19.80
2017,07,23,16,54,19.80
2017,07,23,16,55,19.80
2017,07,23,16,56,19.70
2017,07,23,16,57,19.70
2017,07,23,16,58,19.60
2017,07,23,16,59,19.60
2017,07,23,17,00,19.60
2017,07,23,17,01,19.50
2017,07,23,17,02,19.50
2017,07,23,17,03,19.50
2017,07,23,17,04,19.50
2017,07,23,17,05,19.40
2017,07,23,17,06,19.40
2017,07,23,17,07,19.40
2017,07,23,17,08,19.50
2017,07,23,17,09,19.50
2017,07,23,17,10,19.60
2017,07,23,17,11,19.60
2017,07,23,17,12,19.70
2017,07,23,17,13,19.70
2017,07,23,17,14,19.70
2017,07,23,17,15,19.70
2017,07,23,17,16,19.70
2017,07,23,17,17,19.70
2017,07,23,17,18,19.60
2017,07,23,17,19,19.60
2017,07,23,17,20,19.60
2017,07,23,17,21,19.60
2017,07,23,17,22,19.60
2017,07,23,17,23,19.60
2017,07,23,17,24,19.60
2017,07,23,17,25,19.60
2017,07,23,17,26,19.70
2017,07,23,17,27,19.70
2017,07,23,17,28,19.70
2017,07,23,17,29,19.80
2017,07,23,17,30,19.80
2017,07,23,17,31,19.80
2017,07,23,17,32,19.80
2017,07,23,17,33,19.80
2017,07,23,17,34,19.90
2017,07,23,17,35,19.90
2017,07,23,17,36,19.90
2017,07,23,17,37,20.00
2017,07,23,17,38,20.00
2017,07,23,17,39,20.00
2017,07,23,17,40,20.10
2017,07,23,17,41,20.10
2017,07,23,17,42,20.10
2017,07,23,17,43,20.20
2017,07,23,17,44,20.20
2017,07,23,17,45,20.20
2017,07,23,17,46,20.30
2017,07,23,17,47,20.40
2017,07,23,17,48,20.40
2017,07,23,17,49,20.40
2017,07,23,17,50,20.50
2017,07,23,17,51,20.50
2017,07,23,17,52,20.50
2017,07,23,17,53,20.50
2017,07,23,17,54,20.50
2017,07,23,17,55,20.50
2017,07,23,17,56,20.50
2017,07,23,17,57,20.50
2017,07,23,17,58,20.40
2017,07,23,17,59,20.40
2017,07,23,18,00,20.40
2017,07,23,18,01,20.50
2017,07,23,18,02,20.50
2017,07,23,18,03,20.50
2017,07,23,18,04,20.60
2017,07,23,18,05,20.70
2017,07,23,18,06,20.70
2017,07,23,18,07,20.70
2017,07,23,18,08,20.60
2017,07,23,18,09,20.50
2017,07,23,18,10,20.40
2017,07,23,18,11,20.40
2017,07,23,18,12,20.40
2017,07,23,18,13,20.40
2017,07,23,18,14,20.40
2017,07,23,18,15,20.40
2017,07,23,18,16,20.50
2017,07,23,18,17,20.50
2017,07,23,18,18,20.60
2017,07,23,18,19,20.60
2017,07,23,18,20,20.60
2017,07,23,18,21,20.70
2017,07,23,18,22,20.60
2017,07,23,18,23,20.50
2017,07,23,18,24,20.50
2017,07,23,18,25,20.40
2017,07,23,18,26,20.30
2017,07,23,18,27,20.30
2017,07,23,18,28,20.30
2017,07,23,18,29,20.20
2017,07,23,18,30,20.20
2017,07,23,18,31,20.20
2017,07,23,18,32,20.20
2017,07,23,18,33,20.20
2017,07,23,18,34,20.20
2017,07,23,18,35,20.20
2017,07,23,18,36,20.20
2017,07,23,18,37,20.20
2017,07,23,18,38,20.20
2017,07,23,18,39,20.30
2017,07,23,18,40,20.30
2017,07,23,18,41,20.30
2017,07,23,18,42,20.30
2017,07,23,18,43,20.30
2017,07,23,18,44,20.40
2017,07,23,18,45,20.40
2017,07,23,18,46,20.50
2017,07,23,18,47,20.50
2017,07,23,18,48,20.60
2017,07,23,18,49,20.70
2017,07,23,18,50,20.70
2017,07,23,18,51,20.70
2017,07,23,18,52,20.70
2017,07,23,18,53,20.70
2017,07,23,18,54,20.70
2017,07,23,18,55,20.70
2017,07,23,18,56,20.70
2017,07,23,18,57,20.70
2017,07,23,18,58,20.70
2017,07,23,18,59,20.70
2017,07,23,19,00,20.70
2017,07,23,19,01,20.70
2017,07,23,19,02,20.70
2017,07,23,19,03,20.70
2017,07,23,19,04,20.70
2017,07,23,19,05,20.70
2017,07,23,19,06,20.80
2017,07,23,19,07,20.80
2017,07,23,19,08,20.80
2017,07,23,19,09,20.90
2017,07,23,19,10,20.90
2017,07,23,19,11,20.80
2017,07,23,19,12,20.80
2017,07,23,19,13,20.80
2017,07,23,19,14,20.80
2017,07,23,19,15,20.80
2017,07,23,19,16,20.70
2017,07,23,19,17,20.70
2017,07,23,19,18,20.70
2017,07,23,19,19,20.60
2017,07,23,19,20,20.60
2017,07,23,19,21,20.60
2017,07,23,19,22,20.50
2017,07,23,19,23,20.50
2017,07,23,19,24,20.40
2017,07,23,19,25,20.30
2017,07,23,19,26,20.30
2017,07,23,19,27,20.30
2017,07,23,19,28,20.30
2017,07,23,19,29,20.20
2017,07,23,19,30,20.20
2017,07,23,19,31,20.20
2017,07,23,19,32,20.20
2017,07,23,19,33,20.20
2017,07,23,19,34,20.20
2017,07,23,19,35,20.20
2017,07,23,19,36,20.20
2017,07,23,19,37,20.20
2017,07,23,19,38,20.20
2017,07,23,19,39,20.20
2017,07,23,19,40,20.20
2017,07,23,19,41,20.20
2017,07,23,19,42,20.20
2017,07,23,19,43,20.30
2017,07,23,19,44,20.30
2017,07,23,19,45,20.30
2017,07,23,19,46,20.30
2017,07,23,19,47,20.40
2017,07,23,19,48,20.40
2017,07,23,19,49,20.40
2017,07,23,19,50,20.40
2017,07,23,19,51,20.40
2017,07,23,19,52,20.40
2017,07,23,19,53,20.30
2017,07,23,19,54,20.30
2017,07,23,19,55,20.20
2017,07,23,19,56,20.20
2017,07,23,19,57,20.10
2017,07,23,19,58,20.10
2017,07,23,19,59,20.10
2017,07,23,20,00,20.00
2017,07,23,20,01,20.00
2017,07,23,20,02,20.00
2017,07,23,20,03,20.00
2017,07,23,20,04,20.00
2017,07,23,20,05,20.00
2017,07,23,20,06,20.10
2017,07,23,20,07,20.10
2017,07,23,20,08,20.10
2017,07,23,20,09,20.10
2017,07,23,20,10,20.10
2017,07,23,20,11,20.10
2017,07,23,20,12,20.00
2017,07,23,20,13,20.00
2017,07,23,20,14,19.90
2017,07,23,20,15,19.90
2017,07,23,20,16,19.80
2017,07,23,20,17,19.70
2017,07,23,20,18,19.60
2017,07,23,20,19,19.50
2017,07,23,20,20,19.40
2017,07,23,20,21,19.30
2017,07,23,20,22,19.20
2017,07,23,20,23,19.20
2017,07,23,20,24,19.10
2017,07,23,20,25,19.10
2017,07,23,20,26,19.00
2017,07,23,20,27,18.90
2017,07,23,20,28,18.90
2017,07,23,20,29,18.80
2017,07,23,20,30,18.70
2017,07,23,20,31,18.70
2017,07,23,20,32,18.60
2017,07,23,20,33,18.60
2017,07,23,20,34,18.50
2017,07,23,20,35,18.50
2017,07,23,20,36,18.40
2017,07,23,20,37,18.40
2017,07,23,20,38,18.40
2017,07,23,20,39,18.30
2017,07,23,20,40,18.30
2017,07,23,20,41,18.30
2017,07,23,20,42,18.30
2017,07,23,20,43,18.30
2017,07,23,20,44,18.30
2017,07,23,20,45,18.20
2017,07,23,20,46,18.20
2017,07,23,20,47,18.20
2017,07,23,20,48,18.10
2017,07,23,20,49,18.10
2017,07,23,20,50,18.00
2017,07,23,20,51,18.00
2017,07,23,20,52,17.90
2017,07,23,20,53,17.90
2017,07,23,20,54,17.80
2017,07,23,20,55,17.80
2017,07,23,20,56,17.80
2017,07,23,20,57,17.80
2017,07,23,20,58,17.80
2017,07,23,20,59,17.70
2017,07,23,21,00,17.70
2017,07,23,21,01,17.60
2017,07,23,21,02,17.60
2017,07,23,21,03,17.60
2017,07,23,21,04,17.60
2017,07,23,21,05,17.60
2017,07,23,21,06,17.60
2017,07,23,21,07,17.60
2017,07,23,21,08,17.60
2017,07,23,21,09,17.60
2017,07,23,21,10,17.60
2017,07,23,21,11,17.60
2017,07,23,21,12,17.60
